QPF
0.00 0.02 0.02 0.01 0.09 0.04 0.00 0.01 0.00 0.00 0.00 0.00 0.00 0.01 0.00 0.00 0.02 0.00 0.00 0.00 0.00 0.00 0.00 0.00 0.00 0.00 0.01 0.01 0.00 0.00 0.00 0.00 0.00 0.00 0.00 0.00 0.03 0.02 0.00 0.00 0.00 0.00 0.00 0.00 0.00 0.00 0.00 0.00 0.00
0.01 0.03 0.06 0.09 0.10 0.01 0.02 0.01 0.00 0.00 0.00 0.00 0.01 0.02 0.01 0.00 0.00 0.00 0.00 0.00 0.00 0.00 0.00 0.00 0.00 0.00 0.01 0.00 0.00 0.00 0.00 0.00 0.00 0.00 0.00 0.01 0.07 0.06 0.00 0.00 0.00 0.00 0.00 0.00 0.00 0.00 0.00 0.00 0.00
0.03 0.10 0.12 0.11 0.01 0.00 0.00 0.00 0.00 0.00 0.00 0.00 0.00 0.01 0.01 0.00 0.00 0.00 0.00 0.00 0.00 0.00 0.00 0.00 0.00 0.00 0.00 0.00 0.00 0.00 0.01 0.02 0.00 0.02 0.00 0.02 0.08 0.05 0.00 0.00 0.00 0.00 0.00 0.00 0.00 0.00 0.00 0.00 0.00
0.02 0.12 0.10 0.02 0.00 0.00 0.00 0.00 0.00 0.00 0.00 0.00 0.00 0.00 0.00 0.00 0.00 0.00 0.00 0.00 0.00 0.00 0.00 0.00 0.00 0.00 0.00 0.00 0.00 0.00 0.01 0.03 0.01 0.03 0.02 0.01 0.02 0.00 0.00 0.00 0.00 0.00 0.00 0.00 0.00 0.00 0.00 0.00 0.00
0.01 0.01 0.03 0.01 0.00 0.00 0.00 0.00 0.00 0.00 0.00 0.00 0.00 0.00 0.00 0.00 0.00 0.00 0.00 0.00 0.00 0.00 0.00 0.00 0.00 0.00 0.00 0.00 0.00 0.00 0.00 0.00 0.00 0.00 0.00 0.00 0.00 0.00 0.00 0.00 0.00 0.00 0.00 0.00 0.00 0.00 0.00 0.00 0.00
0.01 0.02 0.01 0.00 0.00 0.00 0.00 0.00 0.00 0.00 0.00 0.00 0.00 0.00 0.00 0.00 0.00 0.00 0.00 0.00 0.00 0.00 0.00 0.00 0.00 0.00 0.00 0.00 0.00 0.00 0.00 0.00 0.00 0.00 0.00 0.00 0.00 0.00 0.00 0.00 0.00 0.00 0.00 0.00 0.00 0.00 0.00 0.00 0.00
0.04 0.05 0.02 0.00 0.00 0.00 0.00 0.00 0.00 0.00 0.00 0.00 0.00 0.00 0.00 0.00 0.00 0.00 0.00 0.00 0.00 0.00 0.00 0.00 0.00 0.00 0.00 0.00 0.00 0.00 0.00 0.00 0.00 0.00 0.00 0.00 0.00 0.00 0.00 0.00 0.00 0.00 0.00 0.00 0.00 0.00 0.00 0.00 0.00
0.03 0.01 0.00 0.00 0.00 0.00 0.00 0.00 0.00 0.00 0.00 0.00 0.00 0.00 0.00 0.00 0.00 0.00 0.00 0.00 0.00 0.00 0.00 0.00 0.00 0.00 0.00 0.00 0.00 0.00 0.00 0.00 0.00 0.00 0.00 0.00 0.00 0.00 0.00 0.00 0.00 0.00 0.00 0.00 0.00 0.00 0.00 0.00 0.00
0.02 0.00 0.00 0.00 0.00 0.00 0.00 0.00 0.00 0.00 0.00 0.00 0.00 0.00 0.00 0.00 0.00 0.00 0.00 0.00 0.00 0.00 0.00 0.00 0.00 0.00 0.00 0.00 0.00 0.00 0.00 0.00 0.00 0.00 0.00 0.00 0.00 0.00 0.00 0.00 0.00 0.00 0.00 0.00 0.00 0.00 0.00 0.00 0.00
0.00 0.00 0.00 0.00 0.00 0.00 0.00 0.00 0.00 0.00 0.00 0.00 0.00 0.00 0.00 0.00 0.00 0.00 0.00 0.00 0.00 0.00 0.00 0.00 0.00 0.00 0.00 0.00 0.00 0.00 0.00 0.00 0.00 0.00 0.00 0.00 0.00 0.00 0.00 0.00 0.01 0.00 0.00 0.00 0.01 0.05 0.09 0.03 0.00
0.00 0.00 0.00 0.00 0.00 0.00 0.00 0.00 0.00 0.00 0.00 0.00 0.00 0.00 0.00 0.00 0.00 0.00 0.00 0.00 0.00 0.00 0.00 0.00 0.00 0.00 0.00 0.00 0.00 0.00 0.00 0.00 0.00 0.00 0.00 0.00 0.00 0.00 0.00 0.00 0.00 0.00 0.00 0.00 0.01 0.01 0.01 0.01 0.08
0.00 0.00 0.00 0.00 0.00 0.00 0.00 0.00 0.00 0.00 0.00 0.00 0.00 0.00 0.00 0.00 0.00 0.00 0.00 0.00 0.00 0.00 0.00 0.00 0.00 0.00 0.00 0.00 0.00 0.00 0.00 0.00 0.00 0.00 0.00 0.00 0.00 0.00 0.00 0.00 0.00 0.00 0.00 0.00 0.00 0.00 0.04 0.05 0.06
0.02 0.01 0.00 0.00 0.00 0.00 0.00 0.00 0.00 0.00 0.00 0.00 0.00 0.00 0.00 0.00 0.00 0.00 0.00 0.00 0.00 0.00 0.00 0.00 0.00 0.00 0.00 0.00 0.00 0.00 0.00 0.00 0.00 0.00 0.00 0.00 0.00 0.00 0.00 0.00 0.00 0.00 0.00 0.00 0.00 0.01 0.09 0.07 0.09
0.04 0.03 0.01 0.00 0.00 0.00 0.00 0.00 0.00 0.00 0.00 0.00 0.00 0.00 0.00 0.00 0.00 0.00 0.00 0.00 0.00 0.00 0.00 0.00 0.00 0.00 0.00 0.00 0.00 0.00 0.00 0.00 0.00 0.00 0.00 0.00 0.00 0.00 0.00 0.00 0.00 0.00 0.00 0.00 0.00 0.03 0.05 0.02 0.02
0.01 0.03 0.01 0.00 0.00 0.00 0.00 0.00 0.00 0.00 0.00 0.00 0.00 0.00 0.00 0.00 0.00 0.00 0.00 0.00 0.00 0.00 0.00 0.00 0.00 0.00 0.00 0.00 0.00 0.00 0.00 0.00 0.00 0.00 0.00 0.00 0.00 0.00 0.00 0.00 0.00 0.00 0.00 0.00 0.01 0.02 0.01 0.02 0.07
0.01 0.00 0.00 0.01 0.00 0.01 0.01 0.00 0.00 0.00 0.02 0.00 0.00 0.00 0.00 0.00 0.00 0.00 0.00 0.00 0.00 0.00 0.00 0.00 0.00 0.00 0.00 0.00 0.00 0.00 0.00 0.00 0.00 0.00 0.00 0.00 0.00 0.00 0.00 0.00 0.00 0.00 0.00 0.00 0.00 0.00 0.00 0.00 0.02
0.00 0.00 0.00 0.00 0.00 0.02 0.01 0.01 0.00 0.00 0.01 0.00 0.00 0.00 0.00 0.00 0.00 0.00 0.00 0.00 0.00 0.00 0.00 0.00 0.00 0.00 0.00 0.00 0.00 0.00 0.00 0.00 0.00 0.00 0.00 0.00 0.00 0.00 0.00 0.00 0.00 0.00 0.00 0.00 0.00 0.00 0.00 0.00 0.04
0.00 0.00 0.00 0.00 0.00 0.00 0.00 0.00 0.00 0.00 0.00 0.00 0.00 0.00 0.00 0.00 0.00 0.00 0.00 0.00 0.00 0.00 0.00 0.00 0.00 0.00 0.00 0.00 0.00 0.00 0.00 0.00 0.00 0.00 0.00 0.00 0.00 0.00 0.00 0.00 0.00 0.00 0.00 0.00 0.00 0.00 0.00 0.01 0.00
0.01 0.00 0.00 0.00 0.00 0.00 0.00 0.00 0.00 0.00 0.00 0.00 0.00 0.00 0.00 0.00 0.00 0.00 0.00 0.00 0.00 0.00 0.00 0.00 0.00 0.00 0.00 0.00 0.00 0.00 0.00 0.00 0.00 0.00 0.00 0.00 0.00 0.00 0.00 0.00 0.00 0.00 0.00 0.00 0.00 0.00 0.00 0.00 0.01
0.00 0.00 0.00 0.00 0.00 0.00 0.00 0.00 0.00 0.00 0.00 0.00 0.00 0.00 0.00 0.00 0.00 0.00 0.00 0.00 0.00 0.00 0.00 0.00 0.00 0.00 0.00 0.00 0.00 0.00 0.00 0.00 0.00 0.00 0.00 0.00 0.00 0.00 0.00 0.00 0.00 0.00 0.00 0.00 0.00 0.00 0.00 0.00 0.00
0.00 0.00 0.00 0.00 0.00 0.00 0.00 0.00 0.00 0.00 0.00 0.00 0.00 0.00 0.00 0.00 0.00 0.00 0.00 0.00 0.00 0.00 0.00 0.00 0.00 0.00 0.00 0.00 0.00 0.00 0.00 0.00 0.00 0.00 0.00 0.00 0.00 0.00 0.00 0.00 0.00 0.00 0.00 0.00 0.00 0.00 0.00 0.00 0.00
0.00 0.00 0.00 0.00 0.00 0.00 0.00 0.00 0.00 0.00 0.00 0.00 0.00 0.00 0.00 0.00 0.00 0.00 0.00 0.00 0.00 0.00 0.00 0.00 0.00 0.00 0.00 0.00 0.00 0.00 0.00 0.00 0.00 0.00 0.00 0.00 0.00 0.00 0.00 0.00 0.00 0.00 0.00 0.00 0.00 0.00 0.00 0.01 0.00
0.00 0.00 0.00 0.00 0.00 0.00 0.00 0.00 0.00 0.00 0.00 0.00 0.00 0.00 0.00 0.00 0.00 0.00 0.00 0.00 0.00 0.00 0.00 0.00 0.00 0.00 0.00 0.00 0.00 0.00 0.00 0.00 0.00 0.00 0.00 0.00 0.00 0.00 0.00 0.00 0.00 0.00 0.00 0.00 0.00 0.00 0.01 0.06 0.03
0.00 0.00 0.00 0.00 0.00 0.00 0.00 0.00 0.00 0.00 0.00 0.00 0.00 0.00 0.00 0.00 0.00 0.00 0.00 0.00 0.00 0.00 0.00 0.00 0.00 0.00 0.00 0.00 0.00 0.00 0.00 0.00 0.00 0.00 0.00 0.00 0.00 0.00 0.00 0.00 0.00 0.00 0.00 0.01 0.01 0.03 0.04 0.05 0.12
0.00 0.00 0.00 0.00 0.00 0.00 0.00 0.00 0.00 0.00 0.00 0.00 0.00 0.00 0.00 0.00 0.00 0.00 0.00 0.00 0.00 0.00 0.00 0.00 0.00 0.00 0.00 0.00 0.00 0.00 0.00 0.00 0.00 0.00 0.00 0.00 0.00 0.00 0.00 0.00 0.00 0.01 0.05 0.09 0.09 0.10 0.13 0.16 0.13
0.00 0.00 0.00 0.00 0.00 0.00 0.00 0.00 0.00 0.00 0.00 0.00 0.00 0.00 0.00 0.00 0.00 0.00 0.00 0.00 0.00 0.00 0.00 0.00 0.00 0.00 0.00 0.00 0.00 0.00 0.00 0.00 0.00 0.00 0.00 0.00 0.00 0.00 0.00 0.00 0.01 0.04 0.05 0.02 0.02 0.07 0.07 0.07 0.13
0.00 0.00 0.00 0.00 0.00 0.00 0.00 0.00 0.00 0.00 0.00 0.00 0.00 0.00 0.00 0.00 0.00 0.00 0.00 0.00 0.00 0.00 0.00 0.00 0.00 0.00 0.00 0.00 0.00 0.00 0.00 0.00 0.00 0.00 0.00 0.00 0.00 0.00 0.00 0.00 0.00 0.00 0.00 0.00 0.02 0.01 0.01 0.07 0.05
0.00 0.00 0.00 0.00 0.00 0.00 0.00 0.00 0.00 0.00 0.00 0.00 0.00 0.00 0.00 0.00 0.00 0.00 0.00 0.00 0.00 0.00 0.00 0.00 0.00 0.00 0.00 0.00 0.00 0.00 0.00 0.00 0.00 0.00 0.00 0.00 0.00 0.00 0.00 0.00 0.00 0.00 0.00 0.00 0.00 0.01 0.01 0.01 0.01
0.00 0.00 0.00 0.00 0.00 0.00 0.00 0.00 0.00 0.00 0.00 0.00 0.00 0.00 0.00 0.00 0.00 0.00 0.00 0.00 0.00 0.00 0.00 0.00 0.00 0.00 0.00 0.00 0.00 0.00 0.00 0.00 0.00 0.00 0.00 0.00 0.00 0.00 0.00 0.00 0.00 0.00 0.00 0.00 0.00 0.00 0.01 0.02 0.03
0.00 0.00 0.00 0.00 0.00 0.00 0.00 0.00 0.00 0.00 0.00 0.00 0.00 0.00 0.00 0.00 0.00 0.00 0.00 0.00 0.00 0.00 0.00 0.00 0.00 0.00 0.00 0.00 0.00 0.00 0.00 0.00 0.00 0.00 0.00 0.00 0.00 0.00 0.00 0.00 0.00 0.00 0.00 0.00 0.00 0.00 0.00 0.01 0.03
MSLP
1007.58 1007.22 1006.64 1006.64 1007.99 1008.49 1006.24 1004.53 1003.42 1003.41 1003.38 1003.42 1003.85 1004.63 1006.08 1006.51 1007.40 1009.64 1010.52 1011.24 1012.42 1013.13 1013.60 1014.04 1014.42 1014.73 1015.19 1015.33 1015.73 1015.88 1016.12 1016.38 1016.59 1016.78 1017.08 1017.24 1017.51 1017.72 1017.86 1018.03 1018.12 1018.21 1018.36 1018.47 1018.69 1018.96 1019.00 1019.11 1019.14
1006.63 1007.12 1008.36 1008.14 1008.34 1007.32 1005.83 1004.02 1003.60 1003.46 1003.39 1003.59 1004.13 1004.99 1006.09 1007.61 1007.93 1009.32 1010.62 1011.58 1012.32 1012.95 1013.60 1014.21 1014.56 1014.87 1015.24 1015.36 1015.74 1015.93 1016.17 1016.43 1016.62 1016.82 1017.02 1017.22 1017.48 1017.73 1017.89 1018.04 1018.16 1018.32 1018.42 1018.48 1018.63 1018.87 1018.91 1018.96 1018.96
1006.56 1006.76 1007.29 1007.22 1006.15 1005.46 1004.54 1003.70 1003.30 1003.14 1003.13 1003.33 1004.35 1004.78 1006.30 1007.90 1008.63 1009.70 1010.79 1011.59 1012.30 1013.16 1013.71 1014.25 1014.60 1014.87 1015.17 1015.46 1015.74 1015.96 1016.21 1016.45 1016.62 1016.86 1017.00 1017.21 1017.38 1017.63 1017.80 1017.95 1018.13 1018.33 1018.45 1018.46 1018.50 1018.67 1018.72 1018.82 1018.79
1006.06 1007.25 1006.60 1005.99 1004.80 1003.68 1003.12 1003.02 1002.86 1003.01 1003.28 1003.99 1004.49 1006.06 1006.84 1007.43 1008.19 1009.29 1010.58 1011.56 1012.37 1013.12 1013.80 1014.22 1014.58 1014.86 1015.12 1015.44 1015.74 1016.00 1016.26 1016.43 1016.62 1016.82 1017.01 1017.24 1017.38 1017.46 1017.62 1017.77 1017.97 1018.22 1018.33 1018.41 1018.38 1018.46 1018.65 1018.64 1018.66
1005.18 1005.74 1006.18 1005.15 1003.84 1002.88 1002.31 1002.15 1002.32 1002.98 1004.01 1004.86 1005.27 1006.93 1007.34 1007.70 1008.21 1009.28 1010.20 1011.04 1012.04 1013.36 1013.86 1014.40 1014.67 1014.90 1015.18 1015.40 1015.65 1016.00 1016.27 1016.43 1016.60 1016.76 1016.93 1017.10 1017.24 1017.32 1017.41 1017.53 1017.81 1017.99 1018.19 1018.33 1018.30 1018.39 1018.56 1018.67 1018.48
1006.67 1007.52 1006.58 1004.87 1003.57 1002.78 1002.02 1001.75 1002.15 1002.86 1003.96 1005.28 1005.92 1006.97 1008.16 1008.33 1008.56 1009.20 1009.88 1010.91 1011.85 1012.97 1013.74 1014.24 1014.62 1014.94 1015.22 1015.41 1015.69 1015.98 1016.21 1016.38 1016.53 1016.63 1016.78 1016.92 1017.01 1017.11 1017.23 1017.34 1017.56 1017.78 1017.98 1018.05 1018.14 1018.21 1018.41 1018.62 1018.57
1007.64 1007.67 1006.45 1004.36 1003.29 1002.64 1001.96 1001.48 1001.82 1002.66 1003.69 1004.73 1005.67 1007.29 1008.42 1008.73 1008.83 1008.95 1009.75 1010.92 1011.78 1012.51 1013.18 1013.97 1014.60 1014.96 1015.22 1015.46 1015.68 1015.91 1016.10 1016.27 1016.41 1016.56 1016.65 1016.76 1016.82 1016.95 1017.04 1017.16 1017.38 1017.61 1017.69 1017.80 1017.97 1018.16 1018.27 1018.44 1018.57
1007.42 1007.69 1005.84 1003.65 1002.94 1002.35 1001.61 1001.62 1002.00 1002.56 1003.31 1004.27 1004.91 1006.65 1007.93 1008.34 1008.66 1008.89 1009.86 1010.86 1011.60 1012.54 1013.24 1013.57 1014.03 1014.42 1014.86 1015.17 1015.33 1015.61 1015.85 1016.04 1016.19 1016.36 1016.53 1016.55 1016.66 1016.77 1016.86 1016.99 1017.14 1017.22 1017.30 1017.53 1017.82 1018.12 1018.34 1018.47 1018.47
1006.22 1006.52 1004.95 1003.36 1002.33 1001.85 1001.42 1001.59 1002.02 1002.36 1003.09 1003.61 1004.23 1005.59 1006.98 1007.87 1008.50 1008.98 1009.88 1010.96 1011.78 1012.47 1012.88 1013.29 1013.77 1014.20 1014.52 1014.90 1015.16 1015.36 1015.54 1015.71 1015.91 1016.05 1016.18 1016.33 1016.48 1016.53 1016.63 1016.75 1017.00 1016.93 1016.93 1017.24 1017.61 1018.04 1018.23 1018.27 1018.16
1006.70 1006.28 1004.60 1002.09 1001.46 1001.24 1001.00 1001.37 1001.97 1002.53 1003.42 1004.54 1005.49 1006.53 1007.34 1007.93 1008.62 1009.07 1009.58 1010.71 1011.41 1011.99 1012.52 1012.89 1013.34 1013.72 1014.16 1014.28 1014.73 1015.22 1015.43 1015.58 1015.71 1015.86 1016.04 1016.16 1016.14 1016.12 1016.24 1016.42 1016.73 1016.67 1016.68 1017.00 1017.38 1017.61 1017.63 1017.64 1017.72
1006.42 1005.38 1003.10 1002.02 1001.24 1001.04 1000.86 1001.28 1001.73 1002.46 1003.61 1004.54 1005.66 1006.64 1007.48 1008.16 1008.72 1009.18 1009.46 1009.81 1010.59 1011.08 1011.81 1012.39 1012.79 1013.04 1013.50 1013.67 1014.38 1014.87 1015.08 1015.27 1015.44 1015.50 1015.68 1015.84 1015.84 1015.75 1015.99 1016.32 1016.48 1016.63 1016.53 1016.73 1017.00 1017.02 1017.45 1017.36 1017.50
1007.27 1004.40 1003.55 1001.97 1001.28 1001.00 1000.89 1001.64 1002.03 1002.46 1003.51 1004.37 1005.57 1006.44 1007.40 1008.15 1008.67 1008.98 1009.24 1009.57 1009.82 1010.52 1010.94 1011.67 1012.16 1012.59 1012.82 1013.28 1013.84 1014.05 1014.49 1014.72 1015.01 1015.10 1015.25 1015.51 1015.56 1015.70 1015.70 1015.88 1016.31 1016.48 1016.33 1016.45 1016.53 1016.80 1017.48 1016.77 1017.09
1007.37 1004.94 1002.88 1001.85 1001.31 1001.26 1001.67 1002.35 1002.60 1003.00 1003.62 1004.46 1005.58 1006.52 1007.28 1007.87 1008.27 1008.51 1008.75 1009.12 1009.47 1009.86 1010.78 1011.15 1011.75 1012.21 1012.60 1013.06 1013.33 1013.54 1013.71 1013.86 1014.16 1014.59 1014.68 1014.87 1014.99 1015.47 1015.31 1015.25 1015.56 1015.91 1015.98 1016.09 1016.32 1016.75 1017.22 1016.99 1017.29
1005.88 1004.53 1003.46 1002.26 1002.16 1002.11 1002.13 1002.83 1002.98 1003.86 1003.96 1004.71 1005.59 1006.55 1007.06 1007.46 1007.74 1008.09 1008.41 1008.83 1009.13 1009.54 1010.07 1010.63 1011.54 1011.97 1012.33 1012.82 1013.13 1013.19 1013.06 1013.22 1013.64 1014.05 1014.26 1014.41 1014.40 1014.64 1014.83 1014.84 1015.06 1015.21 1015.29 1015.26 1015.78 1016.22 1016.40 1016.14 1016.98
1004.28 1004.24 1003.55 1003.03 1002.47 1002.87 1002.88 1003.67 1004.04 1004.29 1004.36 1004.94 1005.70 1006.38 1006.75 1007.11 1007.28 1007.70 1008.04 1008.44 1008.84 1009.32 1009.63 1010.42 1010.96 1011.24 1011.83 1012.21 1012.52 1012.53 1012.62 1012.70 1013.40 1013.54 1013.77 1014.11 1014.37 1014.39 1014.31 1014.61 1014.66 1014.53 1014.42 1014.80 1015.24 1015.61 1015.44 1016.08 1016.82
1004.75 1004.53 1004.38 1002.83 1003.06 1003.48 1003.58 1004.15 1004.03 1004.53 1004.82 1005.01 1005.50 1006.06 1006.41 1006.77 1007.00 1007.33 1007.72 1008.02 1008.67 1009.16 1009.63 1010.12 1010.52 1010.97 1011.46 1011.92 1012.30 1012.40 1012.50 1012.70 1012.83 1013.04 1013.32 1013.54 1013.76 1013.94 1014.13 1014.51 1014.57 1014.39 1014.45 1014.41 1014.94 1015.01 1015.26 1015.50 1015.93
1005.47 1004.99 1004.34 1003.54 1003.06 1003.32 1003.80 1004.45 1004.27 1004.51 1004.69 1005.03 1005.23 1005.80 1006.23 1006.53 1006.79 1007.00 1007.32 1007.82 1008.34 1008.92 1009.46 1009.98 1010.33 1010.88 1011.29 1011.72 1012.12 1012.39 1012.42 1012.55 1012.56 1012.61 1012.84 1012.97 1013.18 1013.36 1013.68 1014.01 1014.16 1014.12 1014.11 1014.24 1014.41 1014.60 1014.89 1014.95 1015.49
1006.25 1005.08 1004.02 1002.93 1002.20 1003.08 1003.62 1004.06 1004.05 1004.02 1004.50 1004.84 1004.88 1005.41 1005.94 1006.26 1006.53 1006.73 1007.09 1007.41 1007.95 1008.52 1008.98 1009.47 1009.97 1010.63 1011.08 1011.49 1011.99 1012.36 1012.54 1012.54 1012.28 1012.25 1012.34 1012.44 1012.68 1012.86 1013.21 1013.51 1013.79 1013.87 1014.08 1013.96 1013.86 1014.08 1014.31 1014.33 1014.45
1004.09 1002.82 1002.84 1001.62 1000.88 1002.21 1002.79 1003.56 1003.54 1003.40 1003.92 1004.12 1004.46 1004.89 1005.31 1005.79 1005.88 1006.24 1006.69 1007.01 1007.66 1008.17 1008.78 1009.33 1009.77 1010.26 1010.86 1011.39 1011.87 1012.24 1012.33 1012.24 1012.14 1012.03 1011.75 1011.81 1012.06 1012.22 1012.56 1013.00 1013.33 1013.42 1013.78 1013.70 1013.67 1013.63 1013.70 1013.87 1013.93
1002.26 1001.32 1000.76 1000.24 1000.15 1000.39 1002.42 1004.44 1003.26 1002.59 1002.43 1002.75 1003.44 1004.16 1004.51 1005.00 1005.37 1005.92 1006.30 1006.86 1007.42 1007.96 1008.32 1008.92 1009.34 1009.72 1010.14 1010.51 1010.93 1011.35 1011.62 1011.70 1011.61 1011.48 1011.24 1011.16 1011.43 1011.63 1012.00 1012.52 1012.82 1013.18 1013.41 1013.48 1013.50 1013.63 1013.75 1013.73 1013.70
1000.48 1000.28 1000.24 1000.32 1000.24 1001.13 1002.26 1003.80 1002.96 1002.13 1001.57 1001.87 1002.30 1002.85 1003.56 1003.99 1004.67 1005.20 1005.57 1005.90 1006.49 1007.23 1007.71 1008.10 1008.39 1008.82 1009.25 1009.66 1010.24 1010.62 1011.01 1011.26 1011.26 1011.15 1010.96 1010.72 1010.61 1010.91 1011.16 1011.48 1012.03 1012.38 1012.79 1013.07 1013.16 1013.20 1013.50 1013.70 1013.66
999.82 999.30 999.86 1000.18 1001.28 1002.61 1002.75 1004.09 1002.95 1002.24 1001.80 1001.72 1001.56 1002.22 1002.57 1003.06 1003.46 1004.09 1004.62 1005.05 1005.36 1006.00 1006.67 1007.23 1007.54 1007.85 1008.14 1008.62 1009.21 1009.68 1009.98 1010.35 1010.32 1010.29 1010.15 1010.12 1009.87 1010.21 1010.42 1010.79 1011.24 1011.58 1011.97 1012.30 1012.47 1012.66 1012.84 1013.12 1013.27
998.88 998.53 999.66 1000.70 1002.14 1003.38 1004.48 1004.67 1003.02 1002.22 1002.02 1001.66 1001.25 1001.50 1001.71 1001.91 1002.14 1002.82 1003.52 1003.89 1004.18 1004.50 1005.34 1006.02 1006.75 1007.21 1007.49 1008.00 1008.20 1008.59 1009.06 1009.26 1009.40 1009.58 1009.70 1009.61 1009.49 1009.52 1009.84 1010.03 1010.31 1010.71 1010.98 1011.23 1011.43 1011.72 1012.07 1012.20 1012.41
998.04 998.62 1000.29 1001.54 1002.76 1004.12 1004.24 1004.33 1003.01 1002.15 1001.51 1001.15 1000.86 1000.58 1000.65 1001.14 1001.11 1001.48 1001.85 1002.71 1003.50 1004.02 1004.22 1004.96 1005.76 1005.90 1006.62 1007.10 1007.56 1007.93 1008.20 1008.60 1009.10 1009.35 1009.49 1009.53 1009.34 1009.37 1009.36 1009.45 1009.58 1009.80 1010.10 1010.36 1010.59 1010.93 1011.14 1011.36 1011.48
998.06 998.86 1000.56 1002.73 1003.61 1003.41 1002.69 1003.78 1002.23 1000.85 1000.26 1000.04 1000.07 1000.09 1000.07 1000.19 1000.46 1000.69 1001.00 1002.10 1003.54 1004.35 1004.16 1004.22 1004.86 1005.43 1005.68 1006.15 1006.87 1007.31 1007.78 1008.22 1008.51 1008.88 1009.12 1009.21 1009.19 1009.13 1009.03 1009.13 1009.20 1009.28 1009.31 1009.41 1009.82 1010.03 1010.29 1010.38 1010.74
998.02 998.85 999.92 1001.46 1002.88 1003.22 1002.60 1002.38 1001.02 1000.07 999.64 999.56 999.34 999.66 999.92 1000.06 999.94 1000.84 1002.14 1003.52 1003.75 1003.32 1004.72 1005.15 1003.76 1004.75 1005.43 1005.81 1005.82 1006.45 1006.86 1007.33 1007.67 1008.02 1008.38 1008.66 1008.66 1008.50 1008.50 1008.67 1008.71 1008.76 1008.86 1008.90 1008.84 1009.06 1009.22 1009.46 1009.66
997.88 998.35 998.81 1000.28 1001.83 1003.44 1003.02 1001.86 1000.77 1000.07 1000.00 999.98 999.63 999.66 999.95 1000.77 1001.64 1001.46 1002.16 1001.64 1002.48 1003.20 1001.78 1002.54 1003.70 1003.79 1004.70 1005.26 1005.68 1005.99 1006.54 1006.93 1007.20 1007.40 1007.56 1007.74 1007.85 1007.96 1008.03 1008.16 1008.30 1008.26 1008.18 1008.20 1008.19 1008.23 1008.22 1008.42 1008.73
997.45 997.84 998.68 1000.09 1001.78 1003.19 1003.20 1002.20 1001.32 1000.52 1000.56 999.92 999.79 1000.24 1000.56 1000.80 1001.57 1002.32 1002.59 1002.76 1003.14 1002.55 1002.00 1002.64 1003.44 1003.56 1004.38 1005.22 1006.04 1006.00 1006.40 1007.05 1007.39 1007.64 1007.67 1007.54 1007.39 1007.42 1007.55 1007.65 1007.75 1007.70 1007.57 1007.56 1007.68 1007.61 1007.52 1007.66 1007.71
997.94 998.30 999.10 1000.26 1001.50 1002.97 1003.57 1002.53 1000.33 1000.53 1000.26 1000.15 1000.47 1000.73 1000.87 1001.05 1001.45 1001.99 1002.44 1002.70 1002.54 1002.07 1003.00 1002.98 1003.46 1004.06 1004.62 1005.01 1005.23 1005.42 1005.88 1006.37 1007.08 1007.56 1007.63 1007.61 1007.41 1007.12 1006.94 1006.96 1007.10 1007.18 1007.16 1006.97 1006.97 1006.99 1007.01 1007.01 1007.11
997.90 998.41 999.20 1000.82 1001.84 1002.30 1002.22 1002.33 1000.90 1000.46 1000.62 1001.15 1001.42 1001.56 1001.51 1001.61 1001.43 1001.45 1001.72 1002.00 1001.95 1002.27 1003.60 1004.01 1003.97 1004.34 1005.01 1005.40 1005.54 1005.56 1004.95 1005.20 1006.15 1006.90 1007.10 1007.27 1007.14 1006.81 1006.48 1006.40 1006.49 1006.61 1006.56 1006.53 1006.30 1006.29 1006.23 1006.42 1006.61
Thickness
5831 5837 5846 5834 5787 5778 5786 5811 5835 5824 5825 5845 5847 5833 5818 5823 5811 5779 5816 5816 5806 5800 5795 5793 5790 5787 5784 5785 5780 5779 5777 5775 5773 5771 5767 5766 5763 5761 5760 5758 5757 5756 5754 5753 5749 5744 5743 5742 5742
5842 5840 5823 5805 5771 5770 5782 5828 5820 5830 5842 5848 5848 5838 5823 5803 5825 5815 5811 5814 5808 5803 5797 5792 5790 5788 5785 5786 5782 5780 5778 5776 5775 5772 5770 5768 5765 5763 5763 5762 5760 5758 5756 5756 5754 5750 5748 5746 5746
5850 5847 5813 5794 5794 5786 5795 5828 5833 5844 5854 5851 5839 5848 5830 5811 5824 5818 5821 5817 5809 5804 5799 5794 5792 5790 5788 5786 5784 5781 5780 5778 5776 5774 5773 5771 5769 5767 5766 5765 5764 5761 5759 5759 5758 5755 5754 5752 5751
5851 5833 5826 5797 5806 5825 5828 5834 5844 5844 5852 5851 5845 5819 5834 5842 5834 5834 5829 5821 5813 5807 5799 5796 5794 5792 5791 5788 5784 5782 5781 5780 5778 5777 5776 5773 5772 5771 5769 5768 5767 5764 5762 5761 5761 5760 5757 5757 5755
5860 5841 5800 5805 5820 5842 5850 5855 5854 5841 5839 5837 5840 5814 5818 5838 5844 5839 5831 5826 5816 5806 5802 5797 5796 5794 5791 5788 5786 5785 5783 5782 5780 5779 5778 5776 5775 5774 5773 5772 5769 5767 5765 5765 5765 5764 5760 5758 5761
5826 5818 5794 5799 5825 5843 5855 5863 5857 5848 5842 5834 5828 5819 5813 5838 5837 5838 5838 5827 5820 5811 5804 5800 5796 5794 5791 5790 5788 5787 5785 5784 5783 5782 5781 5779 5779 5777 5776 5775 5772 5771 5769 5769 5768 5767 5764 5761 5761
5818 5807 5801 5826 5833 5836 5850 5871 5854 5848 5843 5836 5843 5810 5816 5827 5837 5841 5839 5830 5823 5816 5810 5804 5798 5794 5792 5792 5791 5789 5787 5787 5786 5785 5784 5783 5782 5781 5780 5778 5775 5773 5773 5772 5771 5769 5767 5765 5761
5829 5813 5812 5839 5828 5828 5862 5866 5867 5854 5844 5863 5858 5817 5810 5831 5842 5843 5839 5829 5824 5816 5810 5807 5803 5800 5797 5794 5793 5792 5790 5789 5788 5787 5786 5786 5785 5784 5783 5781 5779 5778 5778 5775 5772 5769 5765 5762 5763
5851 5810 5805 5832 5835 5843 5868 5855 5870 5875 5858 5862 5863 5849 5845 5847 5845 5839 5833 5827 5819 5817 5815 5811 5807 5804 5801 5797 5795 5794 5794 5793 5791 5790 5789 5788 5788 5787 5786 5785 5782 5783 5782 5779 5775 5768 5765 5762 5763
5824 5806 5822 5867 5865 5856 5868 5864 5863 5857 5851 5844 5845 5850 5850 5847 5840 5832 5828 5823 5822 5818 5817 5818 5813 5809 5805 5804 5800 5797 5797 5796 5795 5793 5792 5791 5792 5791 5789 5787 5783 5785 5785 5782 5775 5772 5770 5769 5768
5832 5820 5861 5869 5878 5876 5870 5864 5874 5854 5838 5846 5836 5838 5841 5839 5835 5832 5831 5832 5830 5830 5825 5821 5818 5815 5811 5809 5804 5801 5800 5799 5798 5798 5797 5795 5795 5795 5792 5789 5785 5786 5786 5784 5779 5781 5775 5778 5775
5819 5857 5859 5873 5881 5877 5871 5873 5862 5861 5852 5861 5852 5848 5843 5836 5833 5834 5832 5833 5833 5834 5833 5829 5827 5822 5818 5814 5809 5808 5805 5803 5800 5800 5799 5797 5798 5798 5797 5794 5788 5787 5787 5788 5784 5782 5778 5785 5782
5815 5844 5872 5881 5882 5881 5878 5860 5858 5858 5867 5866 5857 5849 5841 5838 5837 5841 5842 5841 5839 5835 5833 5833 5829 5825 5822 5817 5814 5813 5811 5810 5808 5804 5803 5802 5801 5799 5799 5798 5795 5790 5790 5791 5787 5781 5779 5783 5778
5848 5856 5867 5880 5874 5873 5865 5859 5865 5859 5870 5861 5853 5843 5843 5842 5843 5843 5843 5841 5841 5840 5837 5838 5832 5829 5824 5820 5818 5818 5818 5815 5810 5807 5805 5804 5804 5802 5802 5802 5798 5795 5793 5796 5791 5785 5783 5790 5779
5861 5849 5860 5869 5873 5859 5869 5843 5843 5862 5867 5856 5851 5845 5846 5845 5848 5845 5847 5845 5845 5843 5843 5835 5832 5833 5828 5825 5823 5820 5819 5818 5814 5810 5808 5805 5803 5802 5802 5801 5801 5800 5798 5797 5793 5788 5788 5785 5774
5851 5844 5822 5865 5867 5860 5855 5814 5848 5863 5858 5854 5853 5850 5849 5849 5852 5853 5852 5851 5849 5846 5843 5841 5840 5835 5832 5828 5825 5822 5821 5819 5817 5816 5812 5809 5806 5804 5802 5801 5799 5799 5796 5794 5793 5791 5787 5787 5782
5826 5815 5824 5840 5867 5859 5850 5823 5851 5863 5860 5854 5851 5849 5851 5851 5854 5857 5859 5857 5854 5851 5847 5843 5841 5837 5834 5831 5828 5825 5823 5822 5821 5820 5818 5814 5811 5808 5805 5801 5800 5799 5798 5796 5793 5791 5787 5786 5781
5793 5815 5827 5832 5863 5858 5840 5839 5857 5865 5861 5850 5854 5853 5852 5852 5854 5859 5861 5862 5860 5856 5853 5849 5844 5840 5838 5835 5830 5826 5824 5824 5825 5825 5823 5819 5816 5813 5809 5804 5800 5798 5797 5796 5795 5791 5787 5785 5782
5841 5844 5821 5860 5884 5856 5849 5847 5857 5864 5859 5857 5858 5856 5855 5856 5865 5866 5864 5865 5862 5859 5854 5851 5847 5844 5840 5834 5828 5824 5822 5824 5825 5827 5827 5826 5822 5818 5813 5808 5804 5801 5795 5794 5793 5791 5788 5783 5781
5855 5858 5860 5883 5894 5882 5852 5817 5856 5872 5875 5875 5871 5864 5865 5866 5866 5868 5867 5865 5862 5859 5858 5853 5851 5849 5845 5842 5838 5833 5830 5829 5829 5830 5829 5828 5827 5823 5817 5811 5805 5801 5796 5794 5791 5787 5783 5782 5779
5869 5863 5861 5863 5888 5880 5861 5828 5855 5877 5885 5885 5884 5882 5879 5876 5870 5870 5871 5871 5870 5863 5861 5860 5859 5856 5853 5850 5843 5838 5834 5831 5828 5828 5829 5830 5828 5824 5821 5816 5810 5803 5798 5793 5791 5788 5783 5776 5775
5853 5888 5881 5879 5854 5824 5862 5801 5846 5863 5869 5876 5885 5881 5883 5882 5883 5880 5877 5875 5877 5874 5872 5868 5864 5861 5859 5855 5847 5840 5834 5827 5829 5829 5830 5828 5828 5825 5820 5815 5812 5807 5801 5795 5792 5789 5784 5779 5772
5874 5898 5884 5878 5848 5834 5822 5795 5827 5865 5854 5863 5878 5881 5885 5886 5886 5884 5883 5883 5885 5886 5878 5873 5867 5862 5860 5854 5851 5844 5837 5836 5833 5829 5826 5826 5827 5826 5820 5816 5812 5806 5802 5799 5795 5789 5785 5782 5776
5910 5891 5872 5859 5838 5799 5818 5814 5823 5842 5855 5866 5879 5888 5892 5890 5895 5891 5893 5890 5885 5886 5887 5882 5871 5869 5864 5858 5852 5845 5840 5835 5827 5824 5820 5819 5819 5818 5818 5816 5814 5809 5802 5797 5794 5789 5784 5780 5778
5896 5869 5817 5796 5800 5801 5846 5817 5831 5867 5882 5888 5883 5886 5895 5899 5897 5894 5892 5882 5877 5873 5876 5881 5875 5867 5867 5861 5853 5847 5841 5834 5828 5822 5818 5814 5812 5810 5810 5809 5806 5805 5803 5798 5792 5788 5783 5779 5774
5880 5869 5826 5809 5809 5811 5851 5817 5845 5886 5897 5902 5906 5904 5905 5902 5903 5895 5879 5872 5880 5882 5870 5867 5878 5867 5862 5858 5856 5849 5843 5836 5830 5823 5817 5812 5810 5809 5807 5803 5801 5800 5798 5794 5791 5785 5783 5779 5775
5877 5854 5893 5855 5855 5802 5831 5854 5874 5888 5884 5888 5897 5900 5901 5895 5887 5889 5881 5884 5882 5877 5890 5885 5878 5870 5862 5857 5849 5846 5839 5833 5827 5822 5818 5814 5811 5808 5805 5800 5794 5792 5791 5789 5786 5782 5779 5776 5772
5897 5903 5847 5843 5818 5795 5813 5827 5823 5857 5862 5884 5892 5885 5889 5894 5887 5879 5877 5874 5868 5877 5887 5882 5874 5865 5858 5849 5841 5839 5833 5825 5818 5812 5808 5807 5805 5802 5797 5793 5789 5785 5782 5780 5776 5775 5774 5768 5767
5870 5857 5868 5858 5840 5798 5790 5801 5871 5868 5878 5881 5877 5882 5885 5891 5890 5883 5877 5878 5877 5880 5866 5866 5858 5854 5850 5844 5839 5834 5828 5820 5811 5803 5798 5795 5793 5792 5790 5786 5782 5777 5774 5771 5766 5764 5763 5761 5758
5896 5876 5863 5816 5822 5832 5816 5811 5880 5890 5885 5871 5869 5876 5883 5887 5891 5894 5892 5885 5879 5871 5858 5850 5849 5849 5843 5838 5832 5827 5828 5820 5808 5798 5793 5787 5782 5782 5779 5775 5771 5767 5763 5760 5758 5756 5755 5751 5748